EW4498 Weather Reports


Display with metric or nautical units.
time (UTC)temp
F
wind
direction
speed
MPH
gust
MPH
rain 1hr
in
rain 24hr
in
rain mn
in
humidity
%
barometer
mb
20260503051506 53 304 0.0 4.0 0.00 0.00 0.00 85 1011.1
20260503050007 53 233 0.0 5.0 0.00 0.00 0.00 84 1011.1
20260503044508 53 277 0.0 0.0 0.00 0.00 0.00 82 1010.8
20260503043002 51 254 0.0 0.0 0.00 0.00 0.00 83 1011.0
20260503041600 50 248 0.0 0.0 0.00 0.00 0.00 86 1011.0
20260503040056 49 248 0.0 0.0 0.00 0.00 0.00 85 1011.2
20260503034554 49 248 0.0 0.0 0.00 0.00 0.00 85 1011.3
20260503033052 49 250 0.0 0.0 0.00 0.00 0.00 83 1010.9
20260503031551 49 251 0.0 0.0 0.00 0.00 0.00 84 1011.2
20260503030051 48 254 0.0 0.0 0.00 0.00 0.00 85 1011.2
20260503024552 47 259 0.0 0.0 0.00 0.00 0.00 82 1011.4
20260503023048 47 259 0.0 0.0 0.00 0.00 0.00 82 1011.4
20260503021551 47 259 0.0 0.0 0.00 0.00 0.00 82 1011.5
20260503020052 47 259 0.0 0.0 0.00 0.00 0.00 80 1011.4
20260503014607 48 259 0.0 0.0 0.00 0.00 0.00 79 1011.5
20260503013041 49 259 0.0 0.0 0.00 0.00 0.00 79 1011.4
20260503011545 50 259 0.0 0.0 0.00 0.00 0.00 77 1011.5
20260503004533 52 259 0.0 0.0 0.00 0.00 0.00 75 1011.5
20260503003026 53 259 0.0 0.0 0.00 0.00 0.00 72 1011.5
20260503001525 54 259 0.0 0.0 0.00 0.00 0.00 69 1011.6
20260503000019 56 259 0.0 0.0 0.00 0.00 0.00 65 1011.8
20260502234515 57 259 0.0 0.0 0.00 0.00 0.00 63 1011.9
20260502233013 58 259 0.0 0.0 0.00 0.00 0.00 60 1012.1
20260502231510 59 261 1.0 3.0 0.00 0.00 0.00 60 1012.2
20260502230012 59 263 0.0 0.0 0.00 0.00 0.00 59 1012.3
20260502224505 60 263 0.0 0.0 0.00 0.00 0.00 58 1012.4
20260502223002 61 263 0.0 1.0 0.00 0.00 0.00 58 1012.3
20260502221559 62 263 0.0 3.0 0.00 0.00 0.00 54 1012.3
20260502214556 62 263 0.0 1.0 0.00 0.00 0.00 52 1012.3
20260502213037 63 263 0.0 3.0 0.00 0.00 0.00 48 1012.4
20260502211542 63 264 1.0 3.0 0.00 0.00 0.00 47 1012.5
20260502210139 64 267 0.0 3.0 0.00 0.00 0.00 47 1012.6
20260502204555 64 258 0.0 2.0 0.00 0.00 0.00 47 1012.6
20260502203058 64 250 0.0 1.0 0.00 0.00 0.00 47 1012.7
20260502201541 65 241 0.0 1.0 0.00 0.00 0.00 51 1012.7
20260502200039 65 241 0.0 1.0 0.00 0.00 0.00 52 1012.8
20260502194642 66 241 0.0 1.0 0.00 0.00 0.00 51 1012.8
20260502193051 67 241 0.0 2.0 0.00 0.00 0.00 49 1012.8
20260502191546 68 241 0.0 3.0 0.00 0.00 0.00 47 1012.7
20260502190042 68 209 0.0 3.0 0.00 0.00 0.00 45 1012.7
20260502184641 68 227 1.0 4.0 0.00 0.00 0.00 46 1012.7
20260502183058 68 217 1.0 5.0 0.00 0.00 0.00 46 1012.8
20260502163058 73 223 7.0 12.0 0.00 0.00 0.00 38 1013.1
20260502161651 74 257 7.0 15.0 0.00 0.00 0.00 37 1013.4
20260502151648 74 198 7.0 12.0 0.00 0.00 0.00 40 1014.0
20260502150108 74 200 8.0 17.0 0.00 0.00 0.00 39 1014.1
20260502130140 76 216 9.0 16.0 0.00 0.00 0.00 34 1015.4
20260502123140 74 210 8.0 14.0 0.00 0.00 0.00 37 1015.8
20260502121552 75 178 8.0 15.0 0.00 0.00 0.00 37 1016.1
20260502120153 75 202 9.0 13.0 0.00 0.00 0.00 37 1016.2
20260502114611 75 221 10.0 17.0 0.00 0.00 0.00 36 1016.5
20260502113016 74 208 10.0 16.0 0.00 0.00 0.00 38 1016.5
20260502111606 74 209 7.0 11.0 0.00 0.00 0.00 40 1016.7
20260502110155 74 219 8.0 14.0 0.00 0.00 0.00 40 1017.0
20260502104553 74 193 6.0 14.0 0.00 0.00 0.00 42 1017.1
20260502103005 74 232 6.0 12.0 0.00 0.00 0.00 40 1017.2
20260502101627 73 228 4.0 12.0 0.00 0.00 0.00 46 1017.3
20260502071507 65 211 4.0 10.0 0.00 0.00 0.00 54 1018.5
20260502070001 63 221 6.0 10.0 0.00 0.00 0.00 54 1018.6
20260502064559 63 186 5.0 12.0 0.00 0.00 0.00 55 1018.8
20260502063057 62 182 6.0 11.0 0.00 0.00 0.00 56 1018.8
20260502061549 60 190 4.0 7.0 0.00 0.00 0.00 61 1018.8
20260502060043 58 198 3.0 6.0 0.00 0.00 0.00 64 1019.0
20260502054541 56 225 1.0 3.0 0.00 0.00 0.00 68 1019.1
20260502053034 53 227 0.0 2.0 0.00 0.00 0.00 71 1019.2